Location: Crescent
(42.8242°N, 73.7329°W)
Time: 22:12:07
(UTC+00:00)

Vanguard 2 Rocket - Pass Details

Date: 17 February 2026
Orbit: 553 x 3286 km, 32.9° (Epoch: 9 March)

Event Time Altitude Azimuth Distance (km) Brightness Sun altitude
Rises 21:02:42 0° 268° (W) 6,630 12.5 13.7°
Reaches altitude 10° 21:07:52 10° 263° (W) 5,238 12.3 12.9°
Maximum altitude 21:20:48 45° 198° (SSW) 2,207 9.5 10.8°
Drops below altitude 10° 21:28:24 10° 128° (SE) 3,129 9.4 9.6°
Sets 21:30:43 0° 121° (ESE) 3,820 9.8 9.2°
